Tracking 18840 objects as of 19-November-2017
HD Live streaming from Space Station
objects crossing your sky now

SL-24 R/B

Track SL-24 R/B now!
10-day predictions


NORAD ID: 40047
Int'l Code: 2014-033AP
Perigee: 614.9 km
Apogee: 1,460.7 km
Inclination: 97.9 °
Period: 105.8 minutes
Semi major axis: 7408 km
RCS: Unknown
Launch date: June 19, 2014
Source: Commonwealth of Independent States (former USSR) (CIS)
Launch site: Orenburg, Russia (OREN)

Note: This is a ROCKET BODY
aabbcc
Your satellite tracking list
Your tracking list is empty




NASA's NSSDC Master Catalog

Two Line Element Set (TLE):
1 40047U 14033AP  17322.54954625 +.00000003 +00000-0 +14915-4 0  9998
2 40047 097.8683 359.6789 0570827 075.8015 290.5833 13.61382080169749
Source of the keplerian elements: AFSPC